Nome, AK

10:18 PM AKST on December 16, 2017 (GMT -0900)
Nome

Weather History for PAOM - November, 2013

Change the Weather History Date:

Friday, November 22, 2013

  Actual Average Record
Temperature  
Mean Temperature 13 °F 15 °F  
Max Temperature 16 °F 21 °F 44 °F (1949)
Min Temperature 10 °F 8 °F -27 °F (1988)
Degree Days  
Heating Degree Days 52 50  
Month to date heating degree days 959 1032  
Since 1 July heating degree days 3383 3682  
Cooling Degree Days 0 0  
Month to date cooling degree days 0 0  
Year to date cooling degree days 7 3  
Moisture  
Dew Point 5 °F    
Average Humidity 0    
Maximum Humidity 0    
Minimum Humidity 0    
Precipitation  
Precipitation 0.02 in 0.04 in 0.28 in (1959)
Month to date precipitation 1.46 0.93  
Year to date precipitation 20.10 15.44  
Snow  
Snow 0.70 in 0.50 in 3.50 in (1997)
Month to date snowfall 6.8 8.8  
Since 1 July snowfall 8.4 14.0  
Since 1 September snowfall 8.4 14.0  
Snow Depth 2.00 in    
Sea Level Pressure  
Sea Level Pressure 29.35 in    
Wind  
Wind Speed 13 mph (NE)    
Max Wind Speed 35 mph    
Max Gust Speed 46 mph    
Visibility 6 miles    
Events Snow    
T = Trace of Precipitation, MM = Missing Value Source: NWS Daily Summary

Daily Weather History Graph

Daily Weather History Graph

Search for Another Location

Airport or City:

Trip Planner

Search our weather history database for the weather conditions in past years. The results will help you decide how hot, cold, wet, or windy it might be!

Date:

Astronomy

Nov. 22, 2013 Rise Set
Actual Time 10:58 AM AKST 4:36 PM AKST
Civil Twilight 9:52 AM AKST 5:43 PM AKST
Nautical Twilight 8:48 AM AKST 6:47 PM AKST
Astronomical Twilight 7:50 AM AKST 7:45 PM AKST
Moon 10:01 PM AKST (11/22) 2:13 PM AKST (11/22)
Length of Visible Light 7h 50m
Length of Day
5h 37m
Waning Gibbous, 77% of the Moon is Illuminated
Nov 22
Waning Gibbous
Nov 25
Last Quarter
Dec 2
New
Dec 9
First Quarter
Dec 17
Full

Hourly Weather History & Observations

Time (AKST) Temp. Windchill Dew Point Humidity Pressure Visibility Wind Dir Wind Speed Gust Speed Precip Events Conditions
12:53 AM 12.0 °F -4.5 °F -6.0 °F 44% 29.55 in 10.0 mi NNE 16.1 mph - N/A   Mostly Cloudy
1:53 AM 12.9 °F 1.6 °F -5.1 °F 45% 29.53 in 10.0 mi NNW 8.1 mph 18.4 mph N/A   Overcast
2:53 AM 12.9 °F -3.9 °F -2.0 °F 51% 29.49 in 10.0 mi NE 17.3 mph - N/A   Overcast
3:53 AM 15.1 °F -4.7 °F 1.0 °F 54% 29.46 in 7.0 mi NE 27.6 mph 38.0 mph 0.00 in Snow Light Snow
4:53 AM 15.1 °F -6.2 °F 1.0 °F 54% 29.43 in 4.0 mi NE 33.4 mph 43.7 mph 0.00 in Snow Light Snow
5:53 AM 15.1 °F -2.5 °F -0.9 °F 49% 29.42 in 10.0 mi NE 20.7 mph 32.2 mph 0.00 in   Overcast
6:53 AM 15.1 °F -2.0 °F -0.0 °F 51% 29.40 in 10.0 mi NE 19.6 mph 27.6 mph 0.00 in   Overcast
7:53 AM 14.0 °F -3.0 °F -0.9 °F 52% 29.38 in 10.0 mi NNE 18.4 mph 26.5 mph N/A   Overcast
8:53 AM 14.0 °F 1.2 °F 3.9 °F 64% 29.37 in 10.0 mi NNE 10.4 mph - 0.00 in   Overcast
9:53 AM 12.9 °F -0.9 °F 7.0 °F 77% 29.35 in 4.0 mi NNE 11.5 mph - 0.00 in Snow Light Snow
10:02 AM 12.2 °F -2.5 °F 6.8 °F 79% 29.34 in 2.0 mi North 12.7 mph - 0.00 in Snow Light Snow
10:34 AM 14.0 °F 2.0 °F 8.6 °F 79% 29.33 in 4.0 mi NE 9.2 mph - 0.01 in Snow Light Snow
10:53 AM 14.0 °F 0.5 °F 7.0 °F 74% 29.34 in 9.0 mi NE 11.5 mph - 0.01 in   Overcast
11:53 AM 14.0 °F -3.4 °F 3.9 °F 64% 29.32 in 7.0 mi NE 19.6 mph 24.2 mph 0.00 in Snow Low Drifting Snow
12:23 PM 12.2 °F -4.8 °F 5.0 °F 73% 29.31 in 2.0 mi NE 17.3 mph - 0.00 in Snow Light Snow
12:51 PM 12.2 °F -5.8 °F 5.0 °F 73% 29.31 in 3.0 mi NE 19.6 mph 25.3 mph 0.00 in Snow Light Snow
12:53 PM 12.9 °F -3.4 °F 5.0 °F 71% 29.31 in 3.0 mi NE 16.1 mph 25.3 mph 0.00 in Snow Light Snow
1:53 PM 12.9 °F 0.7 °F 6.1 °F 74% 29.31 in 4.0 mi ENE 9.2 mph - 0.00 in Snow Light Snow
2:15 PM 12.2 °F 0.7 °F 6.8 °F 79% 29.30 in 2.0 mi NE 8.1 mph - 0.00 in Snow Light Snow
2:31 PM 12.2 °F 1.7 °F 6.8 °F 79% 29.30 in 1.0 mi ENE 6.9 mph - 0.00 in Snow Light Snow
2:38 PM 12.2 °F 4.3 °F 6.8 °F 79% 29.30 in 3.0 mi ENE 4.6 mph - 0.00 in Snow Light Snow
2:53 PM 12.9 °F 3.8 °F 7.0 °F 77% 29.30 in 3.0 mi NE 5.8 mph - 0.00 in Snow Light Snow
3:44 PM 12.2 °F 0.7 °F 6.8 °F 79% 29.30 in 2.0 mi ENE 8.1 mph - 0.00 in Snow Light Snow
3:53 PM 12.9 °F 2.6 °F 7.0 °F 77% 29.30 in 2.0 mi ENE 6.9 mph - 0.00 in Snow Light Snow
4:04 PM 14.0 °F 3.9 °F 6.8 °F 73% 29.29 in 3.0 mi ENE 6.9 mph - 0.00 in Snow Light Snow
4:53 PM 12.9 °F 1.6 °F 7.0 °F 77% 29.30 in 4.0 mi ENE 8.1 mph - 0.00 in   Haze
5:53 PM 12.9 °F 2.6 °F 7.0 °F 77% 29.31 in 10.0 mi NNE 6.9 mph - 0.00 in   Overcast
6:53 PM 12.9 °F 1.6 °F 7.0 °F 77% 29.31 in 10.0 mi NE 8.1 mph - N/A   Overcast
7:53 PM 14.0 °F 3.9 °F 7.0 °F 74% 29.32 in 10.0 mi NNE 6.9 mph - N/A   Overcast
8:53 PM 14.0 °F 2.9 °F 7.0 °F 74% 29.33 in 10.0 mi North 8.1 mph - N/A   Overcast
9:53 PM 14.0 °F 3.9 °F 8.1 °F 77% 29.33 in 10.0 mi North 6.9 mph - N/A   Overcast
10:53 PM 14.0 °F - 9.0 °F 80% 29.34 in 10.0 mi Calm Calm - 0.01 in   Overcast
11:51 PM 14.0 °F 8.2 °F 8.6 °F 79% 29.33 in 2.5 mi NNW 3.5 mph - 0.00 in Snow Light Snow
11:53 PM 14.0 °F 6.5 °F 9.0 °F 80% 29.34 in 2.5 mi NNW 4.6 mph - 0.00 in Snow Light Snow